Location: ?
(35.4554°N, 139.3092°E)
Time: 21:27:48
(UTC+00:00)

ATLAS 2AS CENTAUR R/B - Pass Details

Date: 21 April 2021
Orbit: 949 x 1263 km, 63.7° (Epoch: 07 May)

Event Time Altitude Azimuth Distance (km) Brightness Sun altitude
Rises 18:11:28 0° 330° (NNW) 4,050 5.8 -21.3°
Reaches altitude 10° 18:14:17 10° 332° (NNW) 3,041 5.1 -20.8°
Maximum altitude 18:21:31 76° 58° (ENE) 1,110 2.9 -19.5°
Drops below altitude 10° 18:28:08 10° 144° (SE) 2,801 5.0 -18.4°
Sets 18:30:38 0° 146° (SE) 3,712 5.6 -18.0°
